Simultaneous Nadir Overpasses (SNOs) Predictions

Prediction of SNOs between GOES-16 and NOAA-19 Satellite Orbit:

Table of predicted SNOs for the next 14.0 days since TLE Epoch: 6/21/2019
Index Date Time (GOES-16) GOES-16 Lat,Lon NOAA-19 Lat,Lon Distance(km) Time Diff (sec)
1 06/22/2019 09:46:50 -0.02, -75.20 -0.58, -72.81 273.14 80
2 06/24/2019 22:08:03 0.02, -75.20 -0.60, -77.83 300.42 80
3 06/25/2019 21:59:05 0.01, -75.20 0.07, -74.99 24.53 80
4 06/26/2019 21:47:28 0.01, -75.21 0.75, -72.16 349.53 80
5 06/29/2019 10:08:33 -0.02, -75.24 0.41, -77.14 216.55 80
6 06/30/2019 09:54:15 -0.02, -75.25 -0.25, -74.31 108.35 80
7 07/01/2019 09:42:38 -0.03, -75.26 -0.91, -71.47 433.29 80
8 07/02/2019 22:15:26 0.03, -75.26 -0.91, -79.32 463.14 80
9 07/03/2019 22:03:48 0.03, -75.27 -0.23, -76.48 137.86 80
10 07/04/2019 21:54:50 0.03, -75.28 0.39, -73.64 187.61 80




NCC Satellite Simultaneous Nadir Overpasses (SNOs) Prediction Service
